CAPE
0 0 0 0 0 0 0 0 0 0 0 0 0 0 0 0 0 0 0 0 0 0 0 0 0 0 0 0 0 0 0 0 0 0 0 0 0 0 0 0 0 0 0 0 0
0 0 0 0 0 0 0 0 0 0 0 0 0 0 0 0 0 0 0 0 0 0 0 0 0 0 0 0 0 0 0 0 0 0 0 0 0 0 0 0 0 0 0 0 0
0 0 0 0 0 0 0 0 0 0 0 0 0 0 0 0 0 0 0 0 0 0 0 0 0 0 0 0 0 0 0 0 0 0 0 0 0 0 0 0 0 0 0 0 0
0 0 0 0 0 0 0 0 0 0 0 0 0 0 0 0 0 0 0 0 0 0 0 0 0 0 0 0 0 0 0 0 0 0 0 0 0 0 0 0 0 0 0 0 0
0 0 0 0 0 0 0 0 0 0 0 0 0 0 0 0 0 0 0 0 0 0 0 0 0 0 0 0 0 0 0 0 0 0 0 0 0 0 0 0 0 0 0 0 0
0 0 0 0 0 0 0 0 0 0 0 0 0 0 0 0 0 0 0 0 0 0 0 0 0 0 0 0 0 0 0 0 0 0 0 0 0 0 0 0 0 0 0 0 0
0 0 0 0 0 0 0 0 0 0 0 0 0 0 0 0 0 0 0 0 0 0 0 0 0 0 0 0 0 0 0 0 0 0 0 0 0 0 0 0 0 0 0 0 0
0 0 0 0 0 0 0 0 0 0 0 0 0 0 0 0 0 0 0 0 0 0 0 0 0 0 0 0 0 0 0 0 0 0 0 0 0 0 0 0 0 0 0 0 0
0 0 0 0 0 0 0 0 0 0 0 0 0 0 0 0 0 0 0 0 0 0 0 0 0 0 0 0 0 0 0 0 0 0 0 0 0 0 0 0 0 0 0 0 0
0 0 0 0 0 0 0 0 0 0 0 0 0 0 0 0 0 0 0 0 0 0 0 0 0 0 0 0 0 0 0 0 0 0 0 0 0 0 0 0 0 0 0 0 0
0 0 0 0 0 0 0 0 0 0 0 0 0 0 0 0 0 0 0 0 0 0 0 0 0 0 0 0 0 0 0 0 0 0 0 0 0 0 0 0 0 0 0 0 0
0 0 0 0 0 0 0 0 0 0 0 0 0 0 0 0 0 0 0 0 0 0 0 0 0 0 0 0 0 0 0 0 0 0 0 0 0 0 0 0 0 0 0 0 0
0 0 0 0 0 0 0 0 0 0 0 0 0 0 0 0 0 0 0 0 0 0 0 0 0 0 0 0 0 0 0 0 0 0 0 0 0 0 0 6 0 0 0 0 0
0 0 0 0 0 0 0 0 0 0 0 0 0 0 0 0 0 0 0 0 0 0 0 0 0 0 0 0 0 0 0 0 0 0 0 0 0 0 0 0 1 0 0 0 0
0 0 0 0 0 0 0 0 0 0 0 0 0 0 0 0 0 0 0 0 0 0 0 0 0 0 0 0 0 0 0 0 0 0 0 0 0 0 0 36 2 0 0 0 0
0 0 0 0 0 0 0 0 0 0 0 0 0 0 0 0 0 0 0 0 0 0 0 0 0 0 0 0 0 0 0 0 0 0 0 0 0 0 0 0 0 0 0 0 0
0 0 0 0 0 0 0 0 0 0 0 0 0 0 0 0 0 0 0 0 0 0 0 0 0 0 0 0 0 0 0 0 0 0 0 0 0 0 0 0 0 0 0 0 0
0 0 0 0 0 0 0 0 0 0 0 0 0 0 0 0 0 0 0 0 0 0 0 0 0 0 0 0 0 0 0 0 0 0 0 0 0 0 0 0 0 0 0 0 0
0 0 0 0 0 0 0 0 0 0 0 0 0 0 0 0 0 0 0 0 0 0 0 0 0 0 0 0 0 0 0 0 0 0 0 0 0 0 0 0 1 1 1 0 0
0 0 0 0 0 0 0 0 0 0 0 0 0 0 0 0 0 0 0 0 0 0 0 0 0 0 0 0 0 0 0 0 0 0 0 0 0 0 0 0 0 3 0 0 0
0 0 0 0 0 0 0 0 0 0 0 0 0 0 0 0 0 0 0 0 0 0 0 0 0 0 0 0 0 0 0 0 0 0 0 0 0 0 0 0 0 0 0 0 0
0 0 0 0 0 0 0 0 0 0 0 0 0 0 0 0 0 0 0 0 0 0 0 0 0 0 0 0 0 0 0 0 0 0 0 0 0 0 0 0 0 0 0 0 0
0 0 0 0 0 0 0 0 0 0 0 0 0 0 0 0 0 0 0 0 0 0 0 0 0 0 0 0 0 0 0 0 0 0 0 0 0 0 0 0 0 0 0 0 0
0 0 0 0 0 0 0 0 0 0 0 0 0 0 0 0 0 0 0 0 0 0 0 0 0 0 0 0 0 0 0 0 0 0 0 0 0 0 0 0 0 0 0 0 0
0 0 0 0 0 0 0 0 0 0 0 0 0 0 0 0 0 0 0 0 0 0 0 0 0 0 0 0 0 0 0 0 0 0 0 0 0 0 0 0 0 0 0 0 8
0 0 0 0 0 0 0 0 0 0 0 0 0 0 0 0 0 0 0 0 0 0 0 0 0 0 0 0 0 0 0 0 0 0 0 0 0 0 0 0 0 0 0 2 58
0 0 0 0 0 0 0 0 0 0 0 0 0 0 0 0 0 0 0 0 0 0 0 0 0 0 0 0 0 0 0 0 0 0 0 0 0 0 0 0 0 0 0 26 25
CIN
-0 -0 -0 -0 -0 -0 -0 -0 -0 -0 -0 -0 -0 -0 -0 -0 -0 -0 -0 -0 -0 -0 -0 -0 -0 -0 -0 -0 -0 -0 -0 -0 -0 -0 -0 -0 -0 -0 -0 -0 -0 -0 -0 -0 -0
-0 -0 -0 -0 -0 -0 -0 -0 -0 -0 -0 -0 -0 -0 -0 -0 -0 -0 -0 -0 -0 -0 -0 -0 -0 -0 -0 -0 -0 -0 -0 -0 -0 -0 -0 -0 -0 -0 -0 -0 -0 -0 -0 -0 -0
-0 -0 -0 -0 -0 -0 -0 -0 -0 -0 -0 -0 -0 -0 -0 -0 -0 -0 -0 -0 -0 -0 -0 -0 -0 -0 -0 -0 -0 -0 -0 -0 -0 -0 -0 -0 -0 -0 -0 -0 -0 -0 -0 -0 -0
-0 -0 -0 -0 -0 -0 -0 -0 -0 -0 -0 -0 -0 -0 -0 -0 -0 -0 -0 -0 -0 -0 -0 -0 -0 -0 -0 -0 -0 -0 -0 -0 -0 -0 -0 -0 -0 -0 -0 -0 -0 -0 -0 -0 -0
-0 -0 -0 -0 -0 -0 -0 -0 -0 -0 -0 -0 -0 -0 -0 -0 -0 -0 -0 -0 -0 -0 -0 -0 -0 -0 -0 -0 -0 -0 -0 -0 -0 -0 -0 -0 -0 -0 -0 -0 -0 -0 -0 -0 -0
-0 -0 -0 -0 -0 -0 -0 -0 -0 -0 -0 -0 -0 -0 -0 -0 -0 -0 -0 -0 -0 -0 -0 -0 -0 -0 -0 -0 -0 -0 -0 -0 -0 -0 -0 -0 -0 -0 -0 -0 -0 -0 -0 -0 -0
-0 -0 -0 -0 -0 -0 -0 -0 -0 -0 -0 -0 -0 -0 -0 -0 -0 -0 -0 -0 -0 -0 -0 -0 -0 -0 -0 -0 -0 -0 -0 -0 -0 -0 -0 -0 -0 -0 -0 -0 -0 -0 -0 -0 -0
-0 -0 -0 -0 -0 -0 -0 -0 -0 -0 -0 -0 -0 -0 -0 -0 -0 -0 -0 -0 -0 -0 -0 -0 -0 -0 -0 -0 -0 -0 -0 -0 -0 -0 -0 -0 -0 -0 -0 -0 -0 -0 -0 -0 -0
-0 -0 -0 -0 -0 -0 -0 -0 -0 -0 -0 -0 -0 -0 -0 -0 -0 -0 -0 -0 -0 -0 -0 -0 -0 -0 -0 -0 -0 -0 -0 -0 -0 -0 -0 -0 -0 -0 -0 -0 -0 -0 -0 -0 -0
-0 -0 -0 -0 -0 -0 -0 -0 -0 -0 -0 -0 -0 -0 -0 -0 -0 -0 -0 -0 -0 -0 -0 -0 -0 -0 -0 -0 -0 -0 -0 -0 -0 -0 -0 -0 -0 -0 -0 -0 -0 -0 -0 -0 -0
-0 -0 -0 -0 -0 -0 -0 -0 -0 -0 -0 -0 -0 -0 -0 -0 -0 -0 -0 -0 -0 -0 -0 -0 -0 -0 -0 -0 -0 -0 -0 -0 -0 -0 -0 -0 -0 -0 -0 -0 -0 -0 -0 -0 -0
-0 -0 -0 -0 -0 -0 -0 -0 -0 -0 -0 -0 -0 -0 -0 -0 -0 -0 -0 -0 -0 -0 -0 -0 -0 -0 -0 -0 -0 -0 -0 -0 -0 -0 -0 -0 -0 -0 -0 -2 -0 -0 -0 -0 -0
-0 -0 -0 -0 -0 -0 -0 -0 -0 -0 -0 -0 -0 -0 -0 -0 -0 -0 -0 -0 -0 -0 -0 -0 -0 -0 -0 -0 -0 -0 -0 -0 -0 -0 -0 -0 -0 -0 -0 -21 -0 -0 -0 -0 -0
-0 -0 -0 -0 -0 -0 -0 -0 -0 -0 -0 -0 -0 -0 -0 -0 -0 -0 -0 -0 -0 -0 -0 -0 -0 -0 -0 -0 -0 -0 -0 -0 -0 -0 -0 -0 -0 -0 -0 -8 -22 -0 -0 -0 -0
-0 -0 -0 -0 -0 -0 -0 -0 -0 -0 -0 -0 -0 -0 -0 -0 -0 -0 -0 -0 -0 -0 -0 -0 -0 -0 -0 -0 -0 -0 -0 -0 -0 -0 -0 -0 -0 -0 -0 -26 -17 -0 -0 -0 -0
-0 -0 -0 -0 -0 -0 -0 -0 -0 -0 -0 -0 -0 -0 -0 -0 -0 -0 -0 -0 -0 -0 -0 -0 -0 -0 -0 -0 -0 -0 -0 -0 -0 -0 -0 -0 -0 -0 -0 -0 -0 -0 -0 -0 -0
-0 -0 -0 -0 -0 -0 -0 -0 -0 -0 -0 -0 -0 -0 -0 -0 -0 -0 -0 -0 -0 -0 -0 -0 -0 -0 -0 -0 -0 -0 -0 -0 -0 -0 -0 -0 -0 -0 -0 -0 -0 -0 -0 -0 -0
-0 -0 -0 -0 -0 -0 -0 -0 -0 -0 -0 -0 -0 -0 -0 -0 -0 -0 -0 -0 -0 -0 -0 -0 -0 -0 -0 -0 -0 -0 -0 -0 -0 -0 -0 -0 -0 -0 -0 -0 -0 -0 -0 -0 -0
-0 -0 -0 -0 -0 -0 -0 -0 -0 -0 -0 -0 -0 -0 -0 -0 -0 -0 -0 -0 -0 -0 -0 -0 -0 -0 -0 -0 -0 -0 -0 -0 -0 -0 -0 -0 -0 -0 -0 -0 -14 -11 -1 -0 -0
-0 -0 -0 -0 -0 -0 -0 -0 -0 -0 -0 -0 -0 -0 -0 -0 -0 -0 -0 -0 -0 -0 -0 -0 -0 -0 -0 -0 -0 -0 -0 -0 -0 -0 -0 -0 -0 -0 -0 -0 -0 -5 -0 -0 -0
-0 -0 -0 -0 -0 -0 -0 -0 -0 -0 -0 -0 -0 -0 -0 -0 -0 -0 -0 -0 -0 -0 -0 -0 -0 -0 -0 -0 -0 -0 -0 -0 -0 -0 -0 -0 -0 -0 -0 -0 -0 -0 -0 -0 -0
-0 -0 -0 -0 -0 -0 -0 -0 -0 -0 -0 -0 -0 -0 -0 -0 -0 -0 -0 -0 -0 -0 -0 -0 -0 -0 -0 -0 -0 -0 -0 -0 -0 -0 -0 -0 -0 -0 -0 -0 -0 -0 -0 -0 -0
-0 -0 -0 -0 -0 -0 -0 -0 -0 -0 -0 -0 -0 -0 -0 -0 -0 -0 -0 -0 -0 -0 -0 -0 -0 -0 -0 -0 -0 -0 -0 -0 -0 -0 -0 -0 -0 -0 -0 -0 -0 -0 -0 -0 -0
-0 -0 -0 -0 -0 -0 -0 -0 -0 -0 -0 -0 -0 -0 -0 -0 -0 -0 -0 -0 -0 -0 -0 -0 -0 -0 -0 -0 -0 -0 -0 -0 -0 -0 -0 -0 -0 -0 -0 -0 -0 -0 -0 -0 -0
-0 -0 -0 -0 -0 -0 -0 -0 -0 -0 -0 -0 -0 -0 -0 -0 -0 -0 -0 -0 -0 -0 -0 -0 -0 -0 -0 -0 -0 -0 -0 -0 -0 -0 -0 -0 -0 -0 -0 -0 -0 -0 -0 -0 -2
-0 -0 -0 -0 -0 -0 -0 -0 -0 -0 -0 -0 -0 -0 -0 -0 -0 -0 -0 -0 -0 -0 -0 -0 -0 -0 -0 -0 -0 -0 -0 -0 -0 -0 -0 -0 -0 -0 -0 -0 -0 -0 -2 -4 -24
-0 -0 -0 -0 -0 -0 -0 -0 -0 -0 -0 -0 -0 -0 -0 -0 -0 -0 -0 -0 -0 -0 -0 -0 -0 -0 -0 -0 -0 -0 -0 -0 -0 -0 -0 -0 -0 -0 -0 -0 -0 -0 -7 -3 -44
Wind_Speed
15 16 16 17 18 19 20 20 21 21 22 22 22 23 23 23 20 18 18 20 21 19 19 6 8 19 15 17 11 8 8 6 18 27 20 24 25 21 20 15 21 17 12 15 20
15 16 17 18 19 20 21 22 22 23 23 24 24 25 25 25 21 17 19 21 22 24 25 26 26 26 21 14 14 15 12 12 29 26 26 28 30 30 25 23 22 23 18 22 24
16 17 18 19 20 21 22 23 23 24 25 25 26 26 26 25 20 16 20 21 23 26 28 28 26 23 20 19 16 19 19 29 27 27 28 26 27 30 30 27 29 25 27 27 28
17 18 19 20 21 22 23 24 24 25 25 26 26 27 27 19 20 18 20 23 26 27 27 27 27 26 25 21 22 21 21 25 28 28 26 26 27 27 28 26 26 27 28 30 31
18 19 20 21 22 23 24 25 26 26 26 27 27 27 24 21 18 17 21 22 24 24 25 25 26 27 24 29 28 26 26 30 29 30 27 25 23 28 32 29 24 27 30 30 30
19 20 21 22 23 25 26 27 27 27 27 28 28 28 22 25 19 23 24 25 24 24 25 25 26 27 25 24 27 28 28 27 28 26 24 23 25 28 28 25 23 26 30 32 31
20 21 22 23 25 26 27 28 28 28 27 27 26 24 23 21 21 24 26 25 23 24 25 24 25 25 28 31 23 30 29 28 26 24 20 24 31 25 32 30 33 32 36 34 33
20 22 23 25 26 27 29 29 29 27 26 25 25 22 24 21 23 23 28 26 22 24 22 23 22 21 22 23 27 27 26 29 26 19 20 21 31 32 33 39 41 34 26 28 31
20 22 24 26 27 29 31 31 30 26 24 24 22 21 24 18 23 27 26 27 26 23 20 22 21 21 24 27 30 25 33 33 32 36 38 36 38 40 38 36 37 35 32 24 24
20 22 24 26 28 30 32 32 24 26 19 18 19 23 21 25 31 28 23 28 27 26 25 18 19 23 21 26 32 34 34 33 36 37 38 38 39 40 36 37 34 30 27 19 22
19 21 24 26 27 28 28 24 23 20 20 22 26 27 27 30 26 23 29 29 25 21 25 24 23 27 26 26 28 31 33 35 32 35 37 37 40 39 35 29 28 18 21 21 24
18 21 23 25 26 27 23 22 22 23 28 20 23 25 22 26 26 19 28 25 26 26 26 22 24 23 25 29 31 30 31 32 34 34 38 40 38 29 26 25 19 19 19 22 24
18 20 23 24 24 21 20 21 22 22 26 20 20 22 21 22 21 24 26 24 22 24 23 24 23 26 27 28 27 27 30 35 38 39 32 32 34 35 30 15 16 19 19 21 25
18 20 22 23 19 20 20 23 22 21 26 21 18 18 17 17 18 22 23 22 19 22 24 21 22 24 26 27 29 29 33 35 36 40 39 32 43 33 30 13 13 17 20 23 25
17 19 21 20 20 20 21 22 20 18 30 19 18 17 17 18 19 18 21 21 21 23 21 21 22 24 26 28 30 30 30 28 31 35 37 33 30 32 29 25 17 18 21 24 27
16 18 20 17 17 18 20 19 17 21 27 18 17 17 14 18 18 20 20 19 19 22 19 19 19 17 21 25 21 19 26 33 27 24 33 30 39 33 30 33 25 17 22 25 30
16 16 18 19 17 19 18 15 19 23 17 17 18 17 16 17 18 20 20 22 22 23 20 23 22 17 22 30 27 33 36 38 34 35 34 40 38 30 37 35 28 25 25 29 32
15 16 16 16 18 18 16 16 22 18 17 16 17 17 18 19 18 19 19 16 22 24 24 22 20 22 24 27 29 30 25 31 39 43 46 39 32 31 40 27 25 25 26 29 33
17 16 16 18 17 15 16 19 19 22 19 18 17 18 16 17 20 18 18 19 20 23 22 24 20 23 22 22 24 24 26 28 30 30 36 33 33 35 36 31 30 30 32 33 37
18 17 17 17 15 15 19 22 22 21 20 20 18 19 19 15 17 17 16 18 18 20 21 21 27 22 20 24 18 16 23 31 28 39 44 37 42 33 38 41 44 34 41 45 47
17 20 19 16 15 17 23 24 21 19 20 20 23 21 21 19 21 17 18 17 18 20 20 23 21 23 23 23 25 26 24 27 32 32 39 45 40 27 51 55 49 50 50 51 50
20 25 18 14 19 19 25 22 23 20 19 18 21 20 19 19 19 20 20 18 18 20 23 22 23 30 25 20 23 24 26 26 33 40 38 41 44 38 39 45 51 52 52 51 49
22 23 18 17 23 21 20 21 22 19 18 17 18 20 19 19 20 20 18 17 19 20 22 24 22 34 27 22 20 25 30 34 36 38 41 44 44 35 44 45 47 45 45 49 49
24 25 20 21 25 25 22 22 21 21 17 18 17 18 19 18 19 19 19 17 18 20 20 23 21 23 30 29 31 35 37 37 36 39 41 41 46 44 45 45 45 45 45 40 42
22 23 20 21 23 23 19 20 18 20 19 16 19 18 17 19 20 20 19 17 17 16 21 21 25 27 27 30 32 34 36 38 37 35 39 43 44 44 43 47 49 45 40 43 36
21 21 19 19 19 23 22 22 20 18 17 20 22 18 20 21 21 23 20 20 22 17 22 22 28 31 33 31 30 36 38 35 31 34 36 39 44 43 44 41 40 39 44 43 32
16 18 20 19 21 20 22 24 21 14 20 21 18 20 19 21 20 21 22 25 25 24 25 26 27 32 34 32 38 33 33 37 37 37 38 44 47 51 51 50 51 47 42 34 29
Wind_Direction
296 297 298 301 303 303 303 304 304 304 304 303 303 302 303 302 282 341 340 331 320 288 282 206 206 350 26 12 36 54 34 41 357 344 351 348 351 354 354 356 352 354 353 354 9
296 300 300 300 302 303 303 303 303 303 303 303 302 301 302 303 299 344 335 331 326 318 323 330 338 337 360 19 17 11 3 6 339 339 337 333 335 336 341 340 345 338 4 354 340
295 299 302 304 304 304 304 304 303 304 303 303 302 300 299 305 324 346 338 335 328 322 309 317 336 348 351 352 360 351 348 331 335 338 336 336 335 333 333 334 330 338 332 334 333
291 296 300 303 305 306 306 306 304 304 305 305 305 305 298 334 330 345 341 332 318 314 326 336 340 343 342 346 342 343 339 334 331 335 336 333 332 334 331 331 336 331 330 330 328
289 294 297 300 302 304 305 306 307 307 308 309 309 310 322 328 341 354 344 340 334 337 339 341 340 339 339 331 330 331 334 328 328 328 329 328 331 331 326 327 330 331 330 329 328
288 293 297 300 302 303 303 304 307 309 313 316 317 314 330 317 340 335 335 332 335 335 335 336 337 335 333 334 330 330 328 328 327 325 320 327 335 332 325 322 333 335 332 329 328
287 292 296 299 301 304 304 306 308 312 316 320 325 332 326 325 340 339 334 334 336 333 330 331 331 331 328 325 332 328 324 325 326 324 337 332 327 330 332 330 327 324 324 326 327
291 294 296 299 301 303 305 304 309 315 319 324 328 334 323 338 335 337 335 336 340 336 335 332 331 326 325 325 323 324 322 324 333 346 339 335 327 329 329 323 318 322 328 330 331
291 294 296 298 298 297 298 299 304 314 320 323 330 332 318 343 339 333 334 332 333 335 340 338 334 330 329 322 323 327 326 329 332 325 325 326 323 323 326 324 321 320 321 330 333
291 294 296 298 299 298 296 295 318 314 326 332 330 322 327 323 326 329 334 328 326 328 329 329 336 331 327 326 325 329 328 329 327 327 323 323 322 324 328 324 323 322 326 341 347
297 298 299 301 301 301 309 316 314 320 324 320 316 317 319 322 326 328 332 326 326 326 323 336 327 325 331 337 333 331 327 325 328 328 328 326 324 326 329 328 325 356 354 356 350
298 302 304 305 308 309 324 315 319 317 309 321 322 320 328 327 324 337 334 331 329 322 326 328 325 339 338 332 328 328 327 328 330 332 331 327 326 331 332 337 347 348 348 350 346
303 307 308 310 316 327 336 325 329 329 310 316 324 327 331 331 328 331 335 333 332 328 331 323 325 338 338 336 336 334 333 332 329 330 335 332 331 336 338 340 353 351 354 355 349
300 308 310 313 318 324 322 327 335 330 308 308 328 339 346 341 331 338 338 337 337 334 333 332 340 339 338 337 338 334 333 332 332 330 331 341 326 339 342 7 1 355 352 349 348
299 305 308 314 312 314 323 327 334 333 297 322 332 344 347 338 335 343 340 336 331 330 335 339 337 338 337 337 338 333 341 341 338 331 331 341 334 342 352 6 356 349 347 347 346
296 301 303 313 321 322 325 329 333 310 295 324 337 341 345 343 340 338 342 341 336 331 334 333 346 356 352 353 354 350 345 339 342 337 329 339 341 342 347 340 336 341 340 339 340
293 298 303 306 307 318 318 322 311 298 322 322 324 331 334 335 336 332 337 341 342 337 341 328 337 8 2 345 354 348 340 335 338 338 336 341 337 333 333 331 334 333 338 339 338
286 293 298 310 310 312 312 307 295 313 309 321 323 325 324 328 332 333 333 340 346 333 330 336 338 347 358 352 345 346 352 342 332 331 329 337 336 345 345 356 352 346 342 340 338
277 286 294 302 307 308 296 292 299 303 310 313 316 314 318 323 318 328 333 331 338 341 337 335 338 354 352 357 355 349 347 350 337 332 329 333 330 340 353 2 352 344 339 336 335
271 281 289 298 305 298 287 287 291 298 303 304 306 305 310 323 324 323 332 340 341 352 355 344 331 347 354 354 354 345 347 344 343 333 329 332 328 337 347 340 336 336 331 327 326
272 276 285 297 297 287 280 283 285 295 293 294 291 297 302 309 307 318 325 338 343 342 353 343 340 342 342 341 343 347 338 338 335 330 324 324 325 344 327 326 327 322 324 323 323
269 272 283 285 279 277 274 278 280 287 291 296 297 299 302 307 306 310 318 329 344 347 340 347 341 332 335 336 346 349 342 340 334 329 324 322 315 325 328 331 330 328 326 327 329
264 269 282 275 271 269 277 272 279 284 287 293 295 299 304 302 305 309 318 333 337 343 343 344 341 332 344 359 357 349 344 334 328 324 321 320 322 335 332 332 332 332 333 330 330
261 261 273 265 269 271 265 269 276 284 288 295 299 303 301 302 306 312 316 330 336 339 345 340 337 333 327 329 328 327 329 328 327 323 322 319 322 330 331 332 333 332 332 333 333
261 263 265 265 256 265 262 273 272 278 285 291 293 294 299 302 302 307 315 325 331 337 335 336 329 331 328 327 327 327 328 328 327 326 323 325 324 330 334 334 331 330 330 332 337
257 264 265 273 257 258 264 269 270 276 280 283 288 296 295 296 302 310 315 319 321 332 329 330 326 329 326 329 332 331 329 331 334 336 332 330 326 332 332 330 329 332 331 331 335
272 275 266 264 263 260 261 267 272 272 287 297 290 293 297 304 312 313 316 311 313 318 322 324 328 331 330 337 332 335 344 338 336 338 336 330 332 334 337 339 337 336 335 334 339